User: anonymous   Login
Location: State Camp
(41.2367°N, 77.7828°W)
Time: 07:09:08
(UTC-04:00)
Language:

Cosmos 1674 Rocket - Orbit

View from above orbital plane
View from above orbital plane
View from above satellite
View from above satellite

Ground track
Ground track

The orbit data is extracted from the following two-line orbital elements,

1 15945U 85069B   16204.81653076  .00000112  00000-0  10554-4 0  9994
2 15945  82.5275  81.4710 0018322 290.9161  69.0093 14.83869102672183
Epoch (UTC): 22 July 2016 19:35:48
Eccentricity: 0.0018322
inclination: 82.5275°
perigee height: 604 km
apogee height: 630 km
right ascension of ascending node: 81.4710°
argument of perigee: 290.9161°
revolutions per day: 14.83869102
mean anomaly at epoch: 69.0093°
orbit number at epoch: 67218

The dashed part of the orbit path shows where the satellite is in the earth's shadow,  

DLR